FW7132 Weather Reports


Display with metric or nautical units.
time (UTC)temp
F
wind
direction
speed
MPH
gust
MPH
rain 1hr
in
rain 24hr
in
rain mn
in
humidity
%
barometer
mb
20260507210310 93 258 1.0 8.0 0.00 0.00 0.00 8 1011.9
20260507205810 92 317 3.0 7.0 0.00 0.00 0.00 8 1011.8
20260507205309 93 297 4.0 7.0 0.00 0.00 0.00 8 1011.5
20260507204810 93 354 2.0 7.0 0.00 0.00 0.00 8 1011.6
20260507204309 92 318 2.0 4.0 0.00 0.00 0.00 9 1011.6
20260507203809 92 213 2.0 8.0 0.00 0.00 0.00 9 1011.8
20260507203309 91 290 0.0 8.0 0.00 0.00 0.00 9 1011.8
20260507202809 92 278 3.0 6.0 0.00 0.00 0.00 9 1012.0
20260507202309 91 290 1.0 9.0 0.00 0.00 0.00 10 1012.0
20260507201809 92 321 2.0 9.0 0.00 0.00 0.00 10 1012.0
20260507200808 92 330 2.0 7.0 0.00 0.00 0.00 10 1012.2
20260507200308 91 319 1.0 7.0 0.00 0.00 0.00 9 1012.2
20260507195808 91 270 2.0 4.0 0.00 0.00 0.00 10 1012.3
20260507194808 92 114 2.0 10.0 0.00 0.00 0.00 10 1012.8
20260507194308 93 217 2.0 10.0 0.00 0.00 0.00 10 1012.7
20260507193807 92 221 3.0 7.0 0.00 0.00 0.00 10 1012.9
20260507193308 92 239 3.0 6.0 0.00 0.00 0.00 10 1012.9
20260507192807 91 293 3.0 6.0 0.00 0.00 0.00 11 1012.9
20260507192307 91 281 3.0 6.0 0.00 0.00 0.00 10 1013.1
20260507191807 91 158 1.0 5.0 0.00 0.00 0.00 11 1013.1
20260507191307 90 90 2.0 5.0 0.00 0.00 0.00 11 1013.2
20260507190807 91 124 4.0 8.0 0.00 0.00 0.00 11 1013.3
20260507190307 90 130 2.0 8.0 0.00 0.00 0.00 11 1013.3
20260507181805 87 226 4.0 7.0 0.00 0.00 0.00 14 1014.0
20260507181305 87 143 3.0 7.0 0.00 0.00 0.00 15 1014.0
20260507180805 87 115 7.0 7.0 0.00 0.00 0.00 14 1014.1
20260507180305 87 231 1.0 6.0 0.00 0.00 0.00 15 1014.1
20260507175804 86 276 3.0 6.0 0.00 0.00 0.00 15 1014.2
20260507175307 86 210 4.0 5.0 0.00 0.00 0.00 15 1014.3
20260507174805 86 199 1.0 7.0 0.00 0.00 0.00 16 1014.3
20260507174304 86 134 5.0 7.0 0.00 0.00 0.00 16 1014.6
20260507173804 85 201 1.0 5.0 0.00 0.00 0.00 17 1014.5
20260507173304 84 145 3.0 5.0 0.00 0.00 0.00 17 1014.5
20260507172804 83 287 2.0 5.0 0.00 0.00 0.00 17 1014.4
20260507172307 84 259 4.0 5.0 0.00 0.00 0.00 17 1014.6
20260507171804 84 295 1.0 5.0 0.00 0.00 0.00 18 1014.6
20260507171304 83 240 1.0 5.0 0.00 0.00 0.00 19 1014.5
20260507170803 83 263 2.0 4.0 0.00 0.00 0.00 18 1014.6
20260507170303 82 260 0.0 5.0 0.00 0.00 0.00 20 1014.8
20260507165803 82 314 2.0 5.0 0.00 0.00 0.00 19 1014.7
20260507164803 81 217 2.0 7.0 0.00 0.00 0.00 20 1014.7
20260507164302 81 223 7.0 7.0 0.00 0.00 0.00 21 1014.7
20260507163802 80 263 4.0 5.0 0.00 0.00 0.00 21 1014.7
20260507163302 80 294 3.0 5.0 0.00 0.00 0.00 21 1014.6
20260507162302 80 228 2.0 4.0 0.00 0.00 0.00 22 1014.7
20260507161801 80 293 2.0 3.0 0.00 0.00 0.00 22 1014.7
20260507161302 80 235 0.0 3.0 0.00 0.00 0.00 22 1014.8
20260507160801 79 214 2.0 3.0 0.00 0.00 0.00 23 1014.7
20260507160301 79 244 0.0 3.0 0.00 0.00 0.00 23 1014.9
20260507155301 78 202 0.0 4.0 0.00 0.00 0.00 24 1014.9
20260507154801 78 184 0.0 4.0 0.00 0.00 0.00 25 1014.9
20260507154301 77 169 1.0 4.0 0.00 0.00 0.00 25 1014.9
20260507153800 76 129 1.0 3.0 0.00 0.00 0.00 25 1014.8
20260507153301 76 134 2.0 3.0 0.00 0.00 0.00 25 1014.8
20260507152801 76 122 1.0 3.0 0.00 0.00 0.00 26 1014.9
20260507152300 75 149 1.0 4.0 0.00 0.00 0.00 27 1014.8
20260507151300 75 248 2.0 3.0 0.00 0.00 0.00 28 1014.9
20260507150800 74 138 1.0 3.0 0.00 0.00 0.00 29 1014.7
20260507150300 74 153 1.0 3.0 0.00 0.00 0.00 29 1014.8
20260507145759 73 164 2.0 3.0 0.00 0.00 0.00 30 1014.9
20260507144759 72 146 0.0 4.0 0.00 0.00 0.00 31 1014.8
20260507144259 72 97 0.0 4.0 0.00 0.00 0.00 31 1014.9
20260507143759 72 111 1.0 4.0 0.00 0.00 0.00 31 1014.8
20260507143259 72 164 0.0 3.0 0.00 0.00 0.00 30 1014.8
20260507142759 72 146 0.0 2.0 0.00 0.00 0.00 32 1014.9
20260507142258 71 100 0.0 2.0 0.00 0.00 0.00 33 1014.9
20260507141758 71 100 0.0 2.0 0.00 0.00 0.00 32 1014.8
20260507141258 71 108 1.0 2.0 0.00 0.00 0.00 31 1014.9
20260507140258 70 103 0.0 1.0 0.00 0.00 0.00 32 1014.7
20260507135758 70 129 0.0 1.0 0.00 0.00 0.00 31 1014.6
20260507135258 69 213 1.0 1.0 0.00 0.00 0.00 32 1015.0
20260507134757 69 141 0.0 1.0 0.00 0.00 0.00 34 1015.0
20260507134257 68 100 0.0 1.0 0.00 0.00 0.00 35 1014.8
20260507133757 67 61 0.0 1.0 0.00 0.00 0.00 36 1014.7
20260507133257 65 60 1.0 1.0 0.00 0.00 0.00 40 1014.6
20260507132757 64 61 0.0 2.0 0.00 0.00 0.00 41 1014.4
20260507132256 62 71 0.0 3.0 0.00 0.00 0.00 44 1014.2
20260507131757 61 33 1.0 3.0 0.00 0.00 0.00 46 1014.2
20260507130756 60 53 0.0 1.0 0.00 0.00 0.00 49 1014.0
20260507130256 60 53 0.0 0.0 0.00 0.00 0.00 47 1014.1
20260507125756 60 53 0.0 2.0 0.00 0.00 0.00 47 1014.1
20260507125256 60 54 0.0 2.0 0.00 0.00 0.00 46 1014.2
20260507124756 60 33 1.0 1.0 0.00 0.00 0.00 48 1014.3
20260507124255 61 5 0.0 1.0 0.00 0.00 0.00 45 1014.2
20260507123755 61 5 0.0 1.0 0.00 0.00 0.00 45 1014.2
20260507122755 61 104 1.0 1.0 0.00 0.00 0.00 45 1014.1
20260507122255 61 105 0.0 1.0 0.00 0.00 0.00 45 1014.1
20260507121755 61 96 0.0 1.0 0.00 0.00 0.00 47 1014.1
20260507121254 62 93 0.0 1.0 0.00 0.00 0.00 43 1014.2
20260507120754 62 93 0.0 1.0 0.00 0.00 0.00 44 1014.2
20260507120254 63 170 0.0 1.0 0.00 0.00 0.00 43 1014.1
20260507115754 62 32 0.0 2.0 0.00 0.00 0.00 41 1014.2
20260507115254 61 111 1.0 2.0 0.00 0.00 0.00 45 1014.1
20260507114254 61 70 0.0 1.0 0.00 0.00 0.00 44 1014.0
20260507113753 62 82 0.0 2.0 0.00 0.00 0.00 45 1014.1
20260507113253 62 82 0.0 2.0 0.00 0.00 0.00 43 1014.3
20260507112753 62 81 1.0 2.0 0.00 0.00 0.00 43 1014.2
20260507112253 62 91 0.0 2.0 0.00 0.00 0.00 44 1014.3
20260507111753 62 73 0.0 3.0 0.00 0.00 0.00 43 1014.3
20260507111253 62 205 0.0 5.0 0.00 0.00 0.00 42 1014.2
20260507110753 62 132 1.0 5.0 0.00 0.00 0.00 43 1014.2
20260507110252 63 297 0.0 1.0 0.00 0.00 0.00 40 1014.1
20260507105253 63 293 0.0 2.0 0.00 0.00 0.00 41 1014.3
20260507104752 63 316 0.0 1.0 0.00 0.00 0.00 40 1014.2
20260507104252 63 65 0.0 0.0 0.00 0.00 0.00 44 1014.2
20260507103752 63 39 0.0 1.0 0.00 0.00 0.00 40 1014.2
20260507103252 63 39 0.0 1.0 0.00 0.00 0.00 45 1014.2
20260507102251 63 32 0.0 1.0 0.00 0.00 0.00 42 1014.4
20260507101751 64 32 0.0 1.0 0.00 0.00 0.00 40 1014.5
20260507101251 64 32 0.0 1.0 0.00 0.00 0.00 38 1014.5
20260507100751 65 27 0.0 2.0 0.00 0.00 0.00 36 1014.6
20260507095751 65 7 0.0 3.0 0.00 0.00 0.00 35 1014.8
20260507095250 65 9 2.0 3.0 0.00 0.00 0.00 35 1014.8
20260507094751 65 340 3.0 3.0 0.00 0.00 0.00 35 1014.7
20260507094250 65 325 1.0 3.0 0.00 0.00 0.00 35 1014.9
20260507093250 65 327 0.0 3.0 0.00 0.00 0.00 35 1015.0
20260507092750 65 323 2.0 3.0 0.00 0.00 0.00 36 1015.0
20260507092250 64 293 0.0 2.0 0.00 0.00 0.00 37 1015.1
20260507091750 63 296 0.0 1.0 0.00 0.00 0.00 39 1014.9
20260507091250 62 329 0.0 1.0 0.00 0.00 0.00 42 1015.0
20260507090249 61 351 0.0 1.0 0.00 0.00 0.00 52 1014.9
20260507085749 61 359 0.0 1.0 0.00 0.00 0.00 51 1014.9
20260507085249 61 359 0.0 0.0 0.00 0.00 0.00 54 1014.9
20260507084749 61 359 0.0 0.0 0.00 0.00 0.00 56 1015.0
20260507084249 61 359 0.0 0.0 0.00 0.00 0.00 54 1015.0
20260507083749 61 358 0.0 0.0 0.00 0.00 0.00 55 1015.0
20260507082748 61 359 0.0 1.0 0.00 0.00 0.00 55 1015.1
20260507082248 62 358 0.0 1.0 0.00 0.00 0.00 52 1015.2
20260507081748 62 101 0.0 0.0 0.00 0.00 0.00 51 1015.2
20260507080747 62 148 0.0 0.0 0.00 0.00 0.00 50 1015.3
20260507080248 64 322 0.0 0.0 0.00 0.00 0.00 44 1015.4
20260507072746 64 322 0.0 0.0 0.00 0.00 0.00 41 1015.3
20260507072247 64 322 0.0 0.0 0.00 0.00 0.00 42 1015.3
20260507071747 64 322 0.0 0.0 0.00 0.00 0.00 41 1015.3
20260507071316 65 322 0.0 0.0 0.00 0.00 0.00 43 1015.5
20260507070746 65 322 0.0 0.0 0.00 0.00 0.00 43 1015.5
20260507070316 65 322 0.0 0.0 0.00 0.00 0.00 42 1015.5
20260507065816 66 322 0.0 0.0 0.00 0.00 0.00 39 1015.5
20260507064816 66 322 0.0 1.0 0.00 0.00 0.00 42 1015.4
20260507063815 66 356 0.0 1.0 0.00 0.00 0.00 39 1015.3
20260507063315 66 356 0.0 1.0 0.00 0.00 0.00 42 1015.4
20260507062815 67 356 0.0 0.0 0.00 0.00 0.00 39 1015.4
20260507062314 68 356 0.0 0.0 0.00 0.00 0.00 39 1015.5
20260507061815 69 356 0.0 0.0 0.00 0.00 0.00 35 1015.5
20260507061314 69 356 0.0 0.0 0.00 0.00 0.00 35 1015.5
20260507060814 70 356 0.0 1.0 0.00 0.00 0.00 33 1015.7
20260507060314 69 356 0.0 2.0 0.00 0.00 0.00 32 1015.4
20260507055814 68 347 0.0 2.0 0.00 0.00 0.00 33 1015.3
20260507054813 67 99 0.0 1.0 0.00 0.00 0.00 43 1015.3
20260507053313 67 99 0.0 1.0 0.00 0.00 0.00 44 1015.4
20260507052813 67 99 0.0 1.0 0.00 0.00 0.00 42 1015.3
20260507052313 68 99 0.0 1.0 0.00 0.00 0.00 38 1015.4
20260507051812 68 99 0.0 1.0 0.00 0.00 0.00 38 1015.3
20260507051312 68 99 0.0 1.0 0.00 0.00 0.00 39 1015.3
20260507050812 68 99 0.0 1.0 0.00 0.00 0.00 41 1015.3
20260507050312 68 99 0.0 1.0 0.00 0.00 0.00 42 1015.3
20260507045812 67 99 1.0 1.0 0.00 0.00 0.00 42 1015.2
20260507044812 68 99 0.0 1.0 0.00 0.00 0.00 44 1015.2
20260507043811 68 99 0.0 1.0 0.00 0.00 0.00 44 1015.1
20260507043311 68 99 0.0 0.0 0.00 0.00 0.00 44 1015.1
20260507042811 68 99 0.0 0.0 0.00 0.00 0.00 43 1015.0
20260507042311 68 99 0.0 0.0 0.00 0.00 0.00 43 1015.0
20260507041811 68 99 0.0 0.0 0.00 0.00 0.00 46 1015.0
20260507041311 68 99 0.0 0.0 0.00 0.00 0.00 45 1014.9
20260507040811 69 99 0.0 1.0 0.00 0.00 0.00 45 1014.9
20260507040311 69 99 0.0 1.0 0.00 0.00 0.00 44 1014.8
20260507030309 71 219 0.0 0.0 0.00 0.00 0.00 39 1014.1
20260507025808 71 219 0.0 0.0 0.00 0.00 0.00 38 1014.0
20260507025308 72 219 0.0 0.0 0.00 0.00 0.00 36 1013.8
20260507024808 73 219 0.0 0.0 0.00 0.00 0.00 33 1013.9
20260507024308 73 219 0.0 0.0 0.00 0.00 0.00 32 1013.7
20260507023308 75 219 0.0 0.0 0.00 0.00 0.00 30 1013.8
20260507022808 75 219 0.0 1.0 0.00 0.00 0.00 27 1013.6
20260507022308 76 219 0.0 1.0 0.00 0.00 0.00 26 1013.7
20260507021808 77 219 0.0 1.0 0.00 0.00 0.00 26 1013.5
20260507021307 77 219 0.0 2.0 0.00 0.00 0.00 24 1013.5
20260507020807 78 224 0.0 2.0 0.00 0.00 0.00 24 1013.8
20260507020307 79 228 0.0 2.0 0.00 0.00 0.00 23 1013.6
20260507015807 79 228 0.0 4.0 0.00 0.00 0.00 23 1013.6
20260507015307 80 207 0.0 5.0 0.00 0.00 0.00 22 1013.4
20260507014806 81 216 1.0 5.0 0.00 0.00 0.00 21 1013.6
20260507014307 81 238 0.0 3.0 0.00 0.00 0.00 22 1013.5
20260507013806 81 235 0.0 3.0 0.00 0.00 0.00 21 1013.5
20260507013306 81 231 0.0 2.0 0.00 0.00 0.00 21 1013.6
20260507012307 82 276 0.0 3.0 0.00 0.00 0.00 21 1013.6
20260507011806 82 221 3.0 4.0 0.00 0.00 0.00 21 1013.6
20260507011305 82 243 1.0 4.0 0.00 0.00 0.00 21 1013.7
20260507010805 82 192 1.0 6.0 0.00 0.00 0.00 21 1013.5
20260507005805 82 283 0.0 7.0 0.00 0.00 0.00 21 1013.6
20260507005306 82 289 1.0 7.0 0.00 0.00 0.00 21 1012.9
20260507004805 83 219 4.0 4.0 0.00 0.00 0.00 20 1013.0
20260507003804 82 150 1.0 5.0 0.00 0.00 0.00 21 1012.8
20260507003304 82 334 0.0 5.0 0.00 0.00 0.00 20 1012.8
20260507002805 83 264 2.0 5.0 0.00 0.00 0.00 20 1013.0
20260507002306 83 200 3.0 4.0 0.00 0.00 0.00 20 1013.0
20260507001804 82 205 0.0 5.0 0.00 0.00 0.00 20 1012.8
20260507001304 83 242 0.0 6.0 0.00 0.00 0.00 20 1012.9
20260507000804 83 223 2.0 6.0 0.00 0.00 0.00 21 1013.0
20260506230802 82 265 0.0 4.0 0.00 0.00 0.00 21 1013.2
20260506230302 82 75 0.0 9.0 0.00 0.00 0.00 21 1013.2
20260506225802 82 299 1.0 9.0 0.00 0.00 0.00 21 1013.3
20260506225305 83 257 3.0 7.0 0.00 0.00 0.00 21 1013.5
20260506224301 82 302 7.0 10.0 0.00 0.00 0.00 21 1013.7
20260506223801 82 287 7.0 10.0 0.00 0.00 0.00 21 1013.6
20260506223301 82 257 3.0 8.0 0.00 0.00 0.00 21 1013.7
20260506221801 82 249 2.0 8.0 0.00 0.00 0.00 21 1013.9
20260506221300 81 333 2.0 8.0 0.00 0.00 0.00 21 1013.9
20260506220800 81 317 2.0 7.0 0.00 0.00 0.00 21 1013.9
20260506220300 82 280 2.0 7.0 0.00 0.00 0.00 20 1014.2
20260506215800 82 269 4.0 4.0 0.00 0.00 0.00 21 1014.2
20260506215300 82 304 1.0 3.0 0.00 0.00 0.00 21 1014.3
20260506213759 81 151 1.0 8.0 0.00 0.00 0.00 21 1014.6
20260506212759 81 310 2.0 6.0 0.00 0.00 0.00 22 1014.7
20260506212259 81 302 4.0 6.0 0.00 0.00 0.00 22 1014.6
20260506211759 81 286 3.0 6.0 0.00 0.00 0.00 22 1014.8
20260506211258 80 290 3.0 4.0 0.00 0.00 0.00 22 1014.8